Regional Weather Roundup
Issued by NWS Charleston, SC

Current Version | Previous Version | Graphics & Text | Print | Product List | Glossary On
Versions: 1 2 3 4 5 6 7 8 9 10 11 12 13 14 15 16 17 18 19 20 21 22 23 24 25 26 27 28 29 30 31 32 33 34 35 36 37 38 39 40 41 42 43 44 45 46 47 48 49 50
624
ASUS42 KCHS 152312
RWRCHS

Regional Weather Roundup
National Weather Service Charleston SC
600 PM EST FRI DEC 15 2017

NOTE: "fair" indicates few or no clouds below 12,000 feet with no
significant weather and/or obstructions to visibility.

Not all stations are quality controlled. Use data with caution,
especially dewpoint observations.

SCZ027-030-031-034>040-042>050-160000-
...Southeast South Carolina...

CITY           SKY/WX    TMP DP  RH WIND       PRES   REMARKS
N Charleston   CLOUDY    56  42  59 SW7       30.01R
Waterfront Prk   N/A     58  43  57 VRB3      29.84F
Mount Pleasant FAIR      57  43  58 SW3       30.00R
Johns Island   FAIR      57  45  62 SW7       30.01R
Pinopolis        N/A     55  43  62 SW7       29.89S
Moncks Corner  FAIR      54  37  54 SW5       30.00R
Summerville    FAIR      54  37  54 SW7       30.02R
Beaufort MCAS  CLOUDY    56  43  61 SW9       30.02R
Beaufort Arpt  FAIR      55  43  62 SW7       30.03R
Hilton Head Is MOCLDY    57  43  58 W8        30.04R
Walterboro     CLOUDY    54  37  54 W7        30.03R
Allendale      FAIR      54  37  54 CALM      30.02R

...Southern Midlands and Pee Dee...

CITY           SKY/WX    TMP DP  RH WIND       PRES   REMARKS
Georgetown     FAIR      54  41  62 W7        29.99R
Kingstree      FAIR      54  36  50 SW6       29.99R
Orangeburg     CLOUDY    54  36  50 W10       30.00R
Barnwell         N/A     55  36  47 W10G16    30.02R
Aiken          FAIR      48  30  49 W13       30.05R
Manning        FAIR      54 -33   2 MISG      29.99R
Columbia       CLOUDY    54  33  45 W14       30.00R
Sumter         CLOUDY    54  35  49 W8        29.96R
Florence       CLOUDY    53  37  54 W3        29.98R
Myrtle Beach   CLOUDY    56  42  59 W8        29.98R
N Myrtle Beach CLOUDY    56  39  53 W5        29.96R

$$

GAZ063-065-086>088-099>101-113>116-118-119-134>141-150-160000-
...Southeast Georgia...

CITY           SKY/WX    TMP DP  RH WIND       PRES   REMARKS
Savannah Arpt  CLOUDY    55  42  61 W9        30.05R
Hunter AAF       N/A     55  43  62 SW7         N/A
Fort Stewart     N/A     54  41  62 SW7         N/A
Statesboro     CLOUDY    55  34  45 W8        30.05S
Sylvania       CLOUDY    54  41  61 W3        30.04S
Claxton        FAIR      55  40  57 SW7       30.05S

...CSRA, Central and far Southeast Georgia...

CITY           SKY/WX    TMP DP  RH WIND       PRES   REMARKS
Thomson        CLOUDY    45  26  47 N12G20    30.11R
Augusta-Bush   CLOUDY    51  29  42 W10       30.03S
Augusta-Daniel CLOUDY    50  30  46 W8        30.04R
Swainsboro     FAIR      52  34  50 NW9G18    30.07R
Vidalia        CLOUDY    54  41  62 CALM      30.07S
Eastman        FAIR      51  24  34 NW7       30.12R
Hazlehurst     FAIR      53  33  46 CALM      30.07S
Alma           PTCLDY    54  42  64 SW5       30.08S
Waycross       CLOUDY    55  41  58 W5        30.09R
Jesup          MOCLDY    55  43  62 CALM      30.08R
Baxley         FAIR      52  37  58 W5        30.07S
Brunswick      CLOUDY    59  39  47 W8        30.08R
Saint Simons   MOCLDY    59  41  51 W9        30.07R

$$

SCZ027-028-034-036>038-045-046-048>050-GAZ119-141-160000-
...Lake and Supplemental Coastal Observations...

STATION/POSITION TIME  TEMP    WIND        PRES    WAVE   SWELL
                       AIR SEA DIR/SP/G            HT/PER HT/PER/DIR
                 (UTC) (F)     (DEG/KT/KT) (MB)    (FT/S) (FT/S/D)
Winyah Bay       2145   57     260/  6     1015.0
Lake Murray      2220   53     260/ 14/ 20 1014.2
ACE Basin NERRS  2145   57     230/  3     1016.0
Fort Pulaski     2242   56 53  250/  5/  7 1017.4R
Sapelo Island    2200   59     280/  9     1018.0

$$

ANZ835-935-AMZ111-154-330-350-352-354-370-450-454-472-160000-
...C-MAN and Buoy Observations...

STATION/POSITION TIME  TEMP    WIND        PRES    WAVE   SWELL
                       AIR SEA DIR/SP/G            HT/PER HT/PER/DIR
                 (UTC) (F)     (DEG/KT/KT) (MB)    (FT/S) (FT/S/D)
Buoy 41004       2250   63 73  260/ 19/ 23 1015.2R   6/ 6
Buoy 41008       2250   59 59  270/ 14/ 16 1017.5R   2/ 3
Folly Beach CMAN 2200   55     220/  8/  9 1016.3R
Capers Nearshore 2208   52 55  240/ 14/ 19 1015.3R


STATION/POSITION TIME  TEMP    WIND        PRES    WAVE   SWELL
                       AIR SEA DIR/SP/G            HT/PER HT/PER/DIR
                 (UTC) (F)     (DEG/KT/KT) (MB)    (FT/S) (FT/S/D)
5E St. Marys GA  2230      62                N/A     2/ 4
Frying Pan Buoy  2250   62 67  260/ 17/ 21 1014.3R   5/ 5
Buoy 41025       2250   63 73  260/ 25/ 31 1012.3R   7/ 6
Cape Lookout NC  2200          240/ 11/ 14 1013.1R
Buoy 41002       2250   72 74  250/ 17/ 21 1015.2R   5/ 7   2/130/11
Buoy 41010       NOT AVBL
St Augustine FL  2300   68 64  280/  2/  3 1018.5R


$$




USA.gov is the U.S. government's official web portal to all federal, state and local government web resources and services.